Weather History for Kirksville, MO

Change the Weather History Date:

Monday, August 4, 2014

  Actual Average Record
Temperature  
Mean Temperature 74 °F 75 °F  
Max Temperature 86 °F 86 °F 106 °F (1918)
Min Temperature 61 °F 65 °F 51 °F (1978)
Degree Days  
Heating Degree Days 0 0  
Month to date heating degree days 0 0  
Since 1 June heating degree days 12 17  
Since 1 July heating degree days 6 1  
Cooling Degree Days 9 10  
Month to date cooling degree days 32 41  
Year to date cooling degree days 592 608  
Since 1 June cooling degree days 470 546  
Growing Degree Days 23 (Base 50)    
Moisture  
Dew Point 64 °F    
Average Humidity 71    
Maximum Humidity 93    
Minimum Humidity 48    
Precipitation  
Precipitation 0.01 in 0.10 in 4.60 in (1968)
Month to date precipitation 0.01 0.44  
Year to date precipitation 19.34 24.03  
Sea Level Pressure  
Sea Level Pressure 30.06 in    
Wind  
Wind Speed 5 mph (South)    
Max Wind Speed 13 mph    
Max Gust Speed 17 mph    
Visibility 8 miles    
Events      
T = Trace of Precipitation, MM = Missing Value Source: NWS Daily Summary

Daily Weather History Graph

Daily Weather History Graph

Search for Another Location

Airport:

Trip Planner

Search our weather history database for the weather conditions in past years. The results will help you decide how hot, cold, wet, or windy it might be!

Date:

Astronomy

Aug. 04, 2014 Rise Set
Actual Time 6:11 AM CDT 8:20 PM CDT
Civil Twilight 5:41 AM CDT 8:50 PM CDT
Nautical Twilight 5:04 AM CDT 9:27 PM CDT
Astronomical Twilight 4:23 AM CDT 10:07 PM CDT
Moon 2:33 PM CDT (8/4) 12:18 AM CDT (8/4)
Length of Visible Light 15h 09m
Length of Day
14h 09m
First Quarter, 57% of the Moon is Illuminated
Aug 4
First Quarter
Aug 10
Full
Aug 17
Last Quarter
Aug 25
New
Sep 2
First Quarter

Hourly Weather History & Observations

Time (CDT) Temp. Heat Index Dew Point Humidity Pressure Visibility Wind Dir Wind Speed Gust Speed Precip Events Conditions
12:55 AM 68.0 °F - 64.0 °F 87% 30.09 in 8.0 mi SE 3.5 mph - N/A   Clear
1:55 AM 66.0 °F - 63.0 °F 90% 30.08 in 7.0 mi SSE 3.5 mph - N/A   Clear
2:55 AM 66.0 °F - 63.0 °F 90% 30.07 in 8.0 mi SSE 3.5 mph - N/A   Partly Cloudy
3:53 AM 62.6 °F - 60.8 °F 94% 30.09 in 2.5 mi Calm Calm - N/A   Clear
3:55 AM 63.0 °F - 61.0 °F 93% 30.08 in 2.5 mi Calm Calm - N/A   Clear
4:04 AM 64.0 °F - 62.1 °F 93% 30.08 in 4.0 mi Calm Calm - N/A   Clear
4:17 AM 62.1 °F - 60.1 °F 93% 30.09 in 1.8 mi Calm Calm - N/A   Clear
4:32 AM 63.0 °F - 61.0 °F 93% 30.09 in 3.0 mi Calm Calm - N/A   Clear
4:55 AM 62.1 °F - 60.1 °F 93% 30.07 in 5.0 mi Calm Calm - N/A   Clear
5:55 AM 62.1 °F - 61.0 °F 96% 30.09 in 4.0 mi SW 3.5 mph - N/A   Partly Cloudy
6:55 AM 66.0 °F - 63.0 °F 90% 30.09 in 6.0 mi Calm Calm - N/A   Clear
7:55 AM 70.0 °F - 64.9 °F 84% 30.11 in 7.0 mi SSW 3.5 mph - N/A   Scattered Clouds
8:55 AM 73.9 °F - 64.9 °F 73% 30.10 in 10.0 mi Calm Calm - N/A   Clear
9:55 AM 79.0 °F - 66.0 °F 64% 30.11 in 10.0 mi WSW 6.9 mph - N/A   Mostly Cloudy
10:55 AM 80.1 °F 81.5 °F 63.0 °F 56% 30.09 in 10.0 mi WSW 5.8 mph - N/A   Mostly Cloudy
11:55 AM 79.0 °F - 64.9 °F 62% 30.08 in 10.0 mi SSW 3.5 mph - N/A   Mostly Cloudy
12:55 PM 82.0 °F 83.8 °F 64.9 °F 56% 30.07 in 10.0 mi South 5.8 mph - N/A   Overcast
1:55 PM 82.0 °F 84.5 °F 66.9 °F 60% 30.06 in 10.0 mi South 6.9 mph - N/A   Overcast
2:55 PM 82.0 °F 83.8 °F 64.9 °F 56% 30.04 in 10.0 mi South 10.4 mph - N/A   Mostly Cloudy
3:55 PM 84.9 °F 85.9 °F 63.0 °F 48% 30.02 in 10.0 mi SSE 10.4 mph - N/A   Mostly Cloudy
4:55 PM 82.0 °F 83.4 °F 64.0 °F 54% 30.01 in 10.0 mi SSE 9.2 mph - N/A   Overcast
5:55 PM 82.9 °F 84.4 °F 64.0 °F 53% 30.01 in 10.0 mi SSE 10.4 mph - N/A   Partly Cloudy
6:55 PM 79.0 °F - 66.9 °F 66% 30.00 in 10.0 mi SSE 6.9 mph - N/A   Partly Cloudy
7:55 PM 77.0 °F - 66.9 °F 71% 30.01 in 10.0 mi SSE 4.6 mph - 0.01 in   Mostly Cloudy
8:55 PM 72.0 °F - 66.9 °F 84% 30.01 in 10.0 mi Calm Calm - N/A   Clear
9:55 PM 71.1 °F - 66.0 °F 84% 30.01 in 10.0 mi SSE 3.5 mph - N/A   Partly Cloudy
10:55 PM 70.0 °F - 66.0 °F 87% 30.01 in 10.0 mi Calm Calm - N/A   Clear
11:55 PM 69.1 °F - 64.9 °F 87% 30.02 in 10.0 mi NNE 5.8 mph - N/A   Clear